星链-5929 (STARLINK-5929 )

导读

STARLINK-5929是美国SpaceX公司星链星座中的低轨卫星,于2023年3月17日发射升空,归属美国主导的全球卫星互联网项目。作为星链巨型星座组网的组成部分,它运行在近地轨道,助力星座实现全球覆盖,为偏远地区提供高速低延迟宽带互联网服务,推动全球网络普及,目前该卫星已在轨运行约三年,服务于星链网络的通信服务。

Basic Information
目录编号:
55959
目录名称:
STARLINK-5929
国际标识:
2023-037AX
轨道中心:
EARTH
卫星名称:
星链-5929
卫星全名:
星链-5929 (STARLINK-5929 )
卫星状态:
在轨 (已飞行1275 天)
发射日期:
2023-03-17 UTC
国别 :
美国 (US)
星等 :
--
This satellite is enrolled in the Space Conjunction Data Service (SCDS) and the current flight risk assessment level is: No High Risk
Orbit Information
数据来源 国际轨道数据
星历时间: 2026-09-12T11:37:49+0800
12小时前
查看轨道信息
半长轴: 6950.191km
偏心率: 0.0002845
轨道倾角: 69.999°
近地点辐角 266.339°
升交点赤经 154.305°
平近点角 93.745°
近地点: 570.076km
远地点: 574.032km
周期: 96.107分钟
每日圈数: 14.983307
Detailed Information
固有亮度:
5
最大亮度:
2.5
卫星平台:
Starlink v1.5
覆盖范围:
全球
运营商:
太空探索技术公司
运营商所在国:
美国
制造商(研发单位):
太空探索技术公司
制造商所在国:
美国
使用方式:
暂无
Satellite Introduction
星链(Starlink)计划是由太空探索技术公司(SpaceX)提出的一个巨型低轨卫星互联网星座项目,计划在2019年至2024年间在太空搭建由约1.2万颗卫星组成的“星链”网络,其中1584颗将部署在地球上空550千米处的近地轨道,并从2020年开始工作。该卫星仍在工作。
2D Orbit Map
3D Orbit Map
Orbit Altitude Analysis Chart
Orbit Inclination Analysis Chart
Orbit Comprehensive Analysis Chart
View Comprehensive Chart
Conjunction Data List
Event ID Objects TCA Miss Dist (km) Collision Risk Probability Collision Risk Index (CRI) Action
CDM_260913-021504-488605-595927
OBJECT H (44886)
2026-09-13T
02:15:41+0000
1.019 km
极远距离
2.573407E-5 中风险 0.63
CDM_260913-143205-215305-595926
OBJECT A (52153)
2026-09-13T
14:32:05+0000
1.754 km
极远距离
4.007322E-6 低风险 0.47
Miss Distance Evolution Trend with All Objects
Collision Probability Evolution Trend with All Objects